ProjectID,Date,Electric Generation,Electric Utility Import,Facility Electric Load
,YYYY-MM-DD,kW,kW,kW
557,2018-01-01,0.0,,0.0
557,2018-01-02,0.0,,0.0
557,2018-01-03,0.0,,0.0
557,2018-01-04,0.0,,0.0
557,2018-01-05,0.0,,0.0
557,2018-01-06,0.0,,0.0
557,2018-01-07,0.0,,0.0
557,2018-01-08,0.0,,0.0
557,2018-01-09,0.0,,0.0
557,2018-01-10,0.0,,0.0
557,2018-01-11,0.0,,0.0
557,2018-01-12,0.0,,0.0
557,2018-01-13,0.0,,0.0
557,2018-01-14,0.0,,0.0
557,2018-01-15,0.0,,0.0
557,2018-01-16,0.0,,0.0
557,2018-01-17,0.0,,0.0
557,2018-01-18,0.0,,0.0
557,2018-01-19,0.0,,0.0
557,2018-01-20,118.67391666666667,,118.67391666666667
557,2018-01-21,153.81416666666667,,153.81416666666667
557,2018-01-22,42.67320833333333,,42.67320833333333
557,2018-01-23,66.486125,,66.486125
557,2018-01-24,37.14420833333333,,37.14420833333333
557,2018-01-25,357.17683333333326,,357.17683333333326
557,2018-01-26,430.9025,,430.9025
557,2018-01-27,107.78320833333333,,107.78320833333333
557,2018-01-28,417.20645833333333,,417.20645833333333
557,2018-01-29,218.72541666666666,,218.72541666666666
557,2018-01-30,36.11599999999999,,36.11599999999999
557,2018-01-31,110.046875,,110.046875
557,2018-02-01,160.19091666666668,,160.19091666666668
557,2018-02-02,218.4681666666667,,218.4681666666667
557,2018-02-03,111.55354166666667,,111.55354166666667
557,2018-02-04,0.24875000000000003,,0.24875000000000003
557,2018-02-05,5.442833333333334,,5.442833333333334
557,2018-02-06,1.5477083333333328,,1.5477083333333328
557,2018-02-07,0.007250000000000002,,0.007250000000000002
557,2018-02-08,1.1504999999999999,,1.1504999999999999
557,2018-02-09,0.3966666666666667,,0.3966666666666667
557,2018-02-10,16.830208333333335,,16.830208333333335
557,2018-02-11,48.18683333333333,,48.18683333333333
557,2018-02-12,114.98116666666668,,114.98116666666668
557,2018-02-13,401.62508333333335,,401.62508333333335
557,2018-02-14,159.03266666666667,,159.03266666666667
557,2018-02-15,195.05420833333326,,195.05420833333326
557,2018-02-16,57.29308333333335,,57.29308333333335
557,2018-02-17,275.98637500000007,,275.98637500000007
557,2018-02-18,64.32045833333335,,64.32045833333335
557,2018-02-19,158.17904166666668,,158.17904166666668
557,2018-02-20,84.22145833333336,,84.22145833333336
557,2018-02-21,125.46050000000002,,125.46050000000002
557,2018-02-22,44.810624999999995,,44.810624999999995
557,2018-02-23,41.77541666666666,,41.77541666666666
557,2018-02-24,211.51770833333327,,211.51770833333327
557,2018-02-25,76.35362500000001,,76.35362500000001
557,2018-02-26,485.6863749999998,,485.6863749999998
557,2018-02-27,519.7311666666666,,519.7311666666666
557,2018-02-28,384.5196666666665,,384.5196666666665
557,2018-03-01,171.99941666666666,,171.99941666666666
557,2018-03-02,0.009041666666666667,,0.009041666666666667
557,2018-03-03,135.41404166666666,,135.41404166666666
557,2018-03-04,301.17058333333335,,301.17058333333335
557,2018-03-05,253.98445833333335,,253.98445833333335
557,2018-03-06,405.34375000000006,,405.34375000000006
557,2018-03-07,40.95054166666666,,40.95054166666666
557,2018-03-08,116.85933333333332,,116.85933333333332
557,2018-03-09,166.29558333333333,,166.29558333333333
557,2018-03-10,86.885375,,86.885375
557,2018-03-11,130.49483333333333,,130.49483333333333
557,2018-03-12,348.59250000000003,,348.59250000000003
557,2018-03-13,68.23049999999999,,68.23049999999999
557,2018-03-14,7.162791666666666,,7.162791666666666
557,2018-03-15,143.884125,,143.884125
557,2018-03-16,146.81904166666666,,146.81904166666666
557,2018-03-17,356.281375,,356.281375
557,2018-03-18,456.6003333333335,,456.6003333333335
557,2018-03-19,556.7956250000001,,556.7956250000001
557,2018-03-20,555.3385833333335,,555.3385833333335
557,2018-03-21,443.55604166666666,,443.55604166666666
557,2018-03-22,620.2461250000001,,620.2461250000001
557,2018-03-23,562.6575833333334,,562.6575833333334
557,2018-03-24,647.8139166666667,,647.8139166666667
557,2018-03-25,634.5754583333335,,634.5754583333335
557,2018-03-26,649.4649583333332,,649.4649583333332
557,2018-03-27,268.44920833333333,,268.44920833333333
557,2018-03-28,164.19787499999998,,164.19787499999998
557,2018-03-29,88.17445833333333,,88.17445833333333
557,2018-03-30,118.19145833333334,,118.19145833333334
557,2018-03-31,579.8880416666667,,579.8880416666667
557,2018-04-01,413.8060833333334,,413.8060833333334
557,2018-04-02,605.471375,,605.471375
557,2018-04-03,89.58991666666667,,89.58991666666667
557,2018-04-04,132.27345833333334,,132.27345833333334
557,2018-04-05,584.6809583333335,,584.6809583333335
557,2018-04-06,123.32695833333337,,123.32695833333337
557,2018-04-07,220.95854166666672,,220.95854166666672
557,2018-04-08,307.0575,,307.0575
557,2018-04-09,572.5340833333333,,572.5340833333333
557,2018-04-10,392.2320416666667,,392.2320416666667
557,2018-04-11,371.84908333333334,,371.84908333333334
557,2018-04-12,170.60183333333336,,170.60183333333336
557,2018-04-13,92.2137916666667,,92.2137916666667
557,2018-04-14,107.15908333333334,,107.15908333333334
557,2018-04-15,63.84395833333335,,63.84395833333335
557,2018-04-16,109.97154166666668,,109.97154166666668
557,2018-04-17,157.0835416666667,,157.0835416666667
557,2018-04-18,128.61995833333336,,128.61995833333336
557,2018-04-19,353.8622083333334,,353.8622083333334
557,2018-04-20,317.099125,,317.099125
557,2018-04-21,682.7684166666667,,682.7684166666667
557,2018-04-22,681.1876666666667,,681.1876666666667
557,2018-04-23,679.8127083333334,,679.8127083333334
557,2018-04-24,585.7866666666667,,585.7866666666667
557,2018-04-25,157.31270833333335,,157.31270833333335
557,2018-04-26,196.69033333333334,,196.69033333333334
557,2018-04-27,309.7215833333334,,309.7215833333334
557,2018-04-28,256.47158333333334,,256.47158333333334
557,2018-04-29,121.17725000000002,,121.17725000000002
557,2018-04-30,226.6537916666667,,226.6537916666667
557,2018-05-01,538.174625,,538.174625
557,2018-05-02,549.885625,,549.885625
557,2018-05-03,269.86475,,269.86475
557,2018-05-04,260.52625000000006,,260.52625000000006
557,2018-05-05,571.929875,,571.929875
557,2018-05-06,281.86470833333334,,281.86470833333334
557,2018-05-07,617.9194166666667,,617.9194166666667
557,2018-05-08,672.5548333333334,,672.5548333333334
557,2018-05-09,588.91425,,588.91425
557,2018-05-10,266.5001666666667,,266.5001666666667
557,2018-05-11,637.7527916666667,,637.7527916666667
557,2018-05-12,202.05229166666672,,202.05229166666672
557,2018-05-13,651.0809166666667,,651.0809166666667
557,2018-05-14,560.4013333333334,,560.4013333333334
557,2018-05-15,204.52370833333336,,204.52370833333336
557,2018-05-16,585.2215416666667,,585.2215416666667
557,2018-05-17,585.742375,,585.742375
557,2018-05-18,668.0912916666667,,668.0912916666667
557,2018-05-19,176.20854166666672,,176.20854166666672
557,2018-05-20,317.42987500000004,,317.42987500000004
557,2018-05-21,683.7918333333333,,683.7918333333333
557,2018-05-22,79.46375000000002,,79.46375000000002
557,2018-05-23,612.5470416666667,,612.5470416666667
557,2018-05-24,674.40125,,674.40125
557,2018-05-25,645.656375,,645.656375
557,2018-05-26,436.843875,,436.843875
557,2018-05-27,150.03150000000002,,150.03150000000002
557,2018-05-28,541.9949583333333,,541.9949583333333
557,2018-05-29,528.4585000000001,,528.4585000000001
557,2018-05-30,584.2710416666667,,584.2710416666667
557,2018-05-31,345.00800000000004,,345.00800000000004
557,2018-06-01,421.2604166666667,,421.2604166666667
557,2018-06-02,447.453125,,447.453125
557,2018-06-03,234.34895833333334,,234.34895833333334
557,2018-06-04,284.6875,,284.6875
557,2018-06-05,307.1354166666667,,307.1354166666667
557,2018-06-06,337.8802083333333,,337.8802083333333
557,2018-06-07,517.609375,,517.609375
557,2018-06-08,593.3697916666666,,593.3697916666666
557,2018-06-09,539.1458333333334,,539.1458333333334
557,2018-06-10,664.578125,,664.578125
557,2018-06-11,683.8229166666666,,683.8229166666666
557,2018-06-12,668.625,,668.625
557,2018-06-13,210.96354166666666,,210.96354166666666
557,2018-06-14,146.22395833333334,,146.22395833333334
557,2018-06-15,642.890625,,642.890625
557,2018-06-16,651.1822916666666,,651.1822916666666
557,2018-06-17,632.1458333333334,,632.1458333333334
557,2018-06-18,352.7395833333333,,352.7395833333333
557,2018-06-19,686.28125,,686.28125
557,2018-06-20,467.5208333333333,,467.5208333333333
557,2018-06-21,637.40625,,637.40625
557,2018-06-22,580.9375,,580.9375
557,2018-06-23,226.95833333333334,,226.95833333333334
557,2018-06-24,248.59895833333334,,248.59895833333334
557,2018-06-25,662.828125,,662.828125
557,2018-06-26,676.84375,,676.84375
557,2018-06-27,97.53645833333333,,97.53645833333333
557,2018-06-28,279.5625,,279.5625
557,2018-06-29,656.9375,,656.9375
557,2018-06-30,549.6614583333334,,549.6614583333334
557,2018-07-01,620.3020833333334,,620.3020833333334
557,2018-07-02,468.84375,,468.84375
557,2018-07-03,642.8645833333334,,642.8645833333334
557,2018-07-04,643.2708333333334,,643.2708333333334
557,2018-07-05,518.53125,,518.53125
557,2018-07-06,535.5364583333334,,535.5364583333334
557,2018-07-07,547.7395833333334,,547.7395833333334
557,2018-07-08,662.6822916666666,,662.6822916666666
557,2018-07-09,662.234375,,662.234375
557,2018-07-10,548.4635416666666,,548.4635416666666
557,2018-07-11,6.296875,,6.296875
557,2018-07-12,0.0,,0.0
557,2018-07-13,0.0,,0.0
557,2018-07-14,0.0,,0.0
557,2018-07-15,0.0,,0.0
557,2018-07-16,0.0,,0.0
557,2018-07-17,7.994791666666667,,7.994791666666667
557,2018-07-18,675.6145833333334,,675.6145833333334
557,2018-07-19,655.515625,,655.515625
557,2018-07-20,649.96875,,649.96875
557,2018-07-21,578.015625,,578.015625
557,2018-07-22,470.4270833333333,,470.4270833333333
557,2018-07-23,470.0208333333333,,470.0208333333333
557,2018-07-24,132.015625,,132.015625
557,2018-07-25,155.0,,155.0
557,2018-07-26,593.7447916666666,,593.7447916666666
557,2018-07-27,490.4166666666667,,490.4166666666667
557,2018-07-28,435.1458333333333,,435.1458333333333
557,2018-07-29,593.9166666666666,,593.9166666666666
557,2018-07-30,505.3229166666667,,505.3229166666667
557,2018-07-31,408.7708333333333,,408.7708333333333
557,2018-08-01,268.5416666666667,,268.5416666666667
557,2018-08-02,349.9322916666667,,349.9322916666667
557,2018-08-03,206.54166666666666,,206.54166666666666
557,2018-08-04,503.2760416666667,,503.2760416666667
557,2018-08-05,602.1927083333334,,602.1927083333334
557,2018-08-06,545.9947916666666,,545.9947916666666
557,2018-08-07,226.47395833333334,,226.47395833333334
557,2018-08-08,299.53125,,299.53125
557,2018-08-09,581.9583333333334,,581.9583333333334
557,2018-08-10,606.3177083333334,,606.3177083333334
557,2018-08-11,321.4635416666667,,321.4635416666667
557,2018-08-12,377.5677083333333,,377.5677083333333
557,2018-08-13,297.3958333333333,,297.3958333333333
557,2018-08-14,272.84375,,272.84375
557,2018-08-15,457.4166666666667,,457.4166666666667
557,2018-08-16,413.9114583333333,,413.9114583333333
557,2018-08-17,217.265625,,217.265625
557,2018-08-18,306.59375,,306.59375
557,2018-08-19,524.5572916666666,,524.5572916666666
557,2018-08-20,602.765625,,602.765625
557,2018-08-21,145.125,,145.125
557,2018-08-22,370.7604166666667,,370.7604166666667
557,2018-08-23,523.6302083333334,,523.6302083333334
557,2018-08-24,572.2083333333334,,572.2083333333334
557,2018-08-25,538.6354166666666,,538.6354166666666
557,2018-08-26,278.890625,,278.890625
557,2018-08-27,305.5885416666667,,305.5885416666667
557,2018-08-28,515.375,,515.375
557,2018-08-29,424.6979166666667,,424.6979166666667
557,2018-08-30,484.6875,,484.6875
557,2018-08-31,292.7916666666667,,292.7916666666667
557,2018-09-01,357.734375,,357.734375
557,2018-09-02,327.2083333333333,,327.2083333333333
557,2018-09-03,384.546875,,384.546875
557,2018-09-04,497.3177083333333,,497.3177083333333
557,2018-09-05,564.1666666666666,,564.1666666666666
557,2018-09-06,374.3854166666667,,374.3854166666667
557,2018-09-07,500.3020833333333,,500.3020833333333
557,2018-09-08,308.8229166666667,,308.8229166666667
557,2018-09-09,237.11458333333334,,237.11458333333334
557,2018-09-10,100.61458333333333,,100.61458333333333
557,2018-09-11,185.875,,185.875
557,2018-09-12,411.3854166666667,,411.3854166666667
557,2018-09-13,577.8854166666666,,577.8854166666666
557,2018-09-14,385.3229166666667,,385.3229166666667
557,2018-09-15,553.6458333333334,,553.6458333333334
557,2018-09-16,562.3854166666666,,562.3854166666666
557,2018-09-17,378.65625,,378.65625
557,2018-09-18,329.5416666666667,,329.5416666666667
557,2018-09-19,471.3020833333333,,471.3020833333333
557,2018-09-20,364.0625,,364.0625
557,2018-09-21,243.80208333333334,,243.80208333333334
557,2018-09-22,428.5104166666667,,428.5104166666667
557,2018-09-23,590.3125,,590.3125
557,2018-09-24,541.1979166666666,,541.1979166666666
557,2018-09-25,96.82291666666667,,96.82291666666667
557,2018-09-26,70.34375,,70.34375
557,2018-09-27,359.8645833333333,,359.8645833333333
557,2018-09-28,301.0729166666667,,301.0729166666667
557,2018-09-29,397.4270833333333,,397.4270833333333
557,2018-09-30,223.51041666666666,,223.51041666666666
557,2018-10-01,68.34375,,68.34375
557,2018-10-02,90.375,,90.375
557,2018-10-03,132.90625,,132.90625
557,2018-10-04,139.19791666666666,,139.19791666666666
557,2018-10-05,509.6041666666667,,509.6041666666667
557,2018-10-06,187.875,,187.875
557,2018-10-07,93.05208333333333,,93.05208333333333
557,2018-10-08,314.53125,,314.53125
557,2018-10-09,285.8958333333333,,285.8958333333333
557,2018-10-10,369.9270833333333,,369.9270833333333
557,2018-10-11,54.3125,,54.3125
557,2018-10-12,195.27083333333334,,195.27083333333334
557,2018-10-13,151.35416666666666,,151.35416666666666
557,2018-10-14,467.4479166666667,,467.4479166666667
557,2018-10-15,31.697916666666668,,31.697916666666668
557,2018-10-16,355.8333333333333,,355.8333333333333
557,2018-10-17,160.38541666666666,,160.38541666666666
557,2018-10-18,460.3020833333333,,460.3020833333333
557,2018-10-19,443.6041666666667,,443.6041666666667
557,2018-10-20,218.89583333333334,,218.89583333333334
557,2018-10-21,130.15625,,130.15625
557,2018-10-22,84.28125,,84.28125
557,2018-10-23,238.61458333333334,,238.61458333333334
557,2018-10-24,163.91666666666666,,163.91666666666666
557,2018-10-25,108.26041666666667,,108.26041666666667
557,2018-10-26,206.0,,206.0
557,2018-10-27,31.135416666666668,,31.135416666666668
557,2018-10-28,86.27083333333333,,86.27083333333333
557,2018-10-29,74.46875,,74.46875
557,2018-10-30,457.2291666666667,,457.2291666666667
557,2018-10-31,78.3125,,78.3125
557,2018-11-01,33.270833333333336,,33.270833333333336
557,2018-11-02,108.9375,,108.9375
557,2018-11-03,92.27083333333333,,92.27083333333333
557,2018-11-04,309.8125,,309.8125
557,2018-11-05,62.03125,,62.03125
557,2018-11-06,71.65625,,71.65625
557,2018-11-07,206.35416666666666,,206.35416666666666
557,2018-11-08,48.28125,,48.28125
557,2018-11-09,36.125,,36.125
557,2018-11-10,312.3541666666667,,312.3541666666667
557,2018-11-11,115.77083333333333,,115.77083333333333
557,2018-11-12,286.8229166666667,,286.8229166666667
557,2018-11-13,17.145833333333332,,17.145833333333332
557,2018-11-14,9.572916666666666,,9.572916666666666
557,2018-11-15,7.760416666666667,,7.760416666666667
557,2018-11-16,13.354166666666666,,13.354166666666666
557,2018-11-17,41.270833333333336,,41.270833333333336
557,2018-11-18,77.22916666666667,,77.22916666666667
557,2018-11-19,241.44791666666666,,241.44791666666666
557,2018-11-20,79.46875,,79.46875
557,2018-11-21,30.166666666666668,,30.166666666666668
557,2018-11-22,79.33333333333333,,79.33333333333333
557,2018-11-23,179.33333333333334,,179.33333333333334
557,2018-11-24,86.84375,,86.84375
557,2018-11-25,39.125,,39.125
557,2018-11-26,18.947916666666668,,18.947916666666668
557,2018-11-27,24.21875,,24.21875
557,2018-11-28,51.875,,51.875
557,2018-11-29,35.677083333333336,,35.677083333333336
557,2018-11-30,33.09375,,33.09375
557,2018-12-01,185.16666666666666,,185.16666666666666
557,2018-12-02,38.78125,,38.78125
557,2018-12-03,27.90625,,27.90625
557,2018-12-04,209.75,,209.75
557,2018-12-05,281.59375,,281.59375
557,2018-12-06,12.9375,,12.9375
557,2018-12-07,8.677083333333334,,8.677083333333334
557,2018-12-08,3.3645833333333335,,3.3645833333333335
557,2018-12-09,107.17708333333333,,107.17708333333333
557,2018-12-10,115.75,,115.75
557,2018-12-11,33.354166666666664,,33.354166666666664
557,2018-12-12,9.09375,,9.09375
557,2018-12-13,103.0,,103.0
557,2018-12-14,33.625,,33.625
557,2018-12-15,103.71875,,103.71875
557,2018-12-16,45.416666666666664,,45.416666666666664
557,2018-12-17,26.197916666666668,,26.197916666666668
557,2018-12-18,251.02083333333334,,251.02083333333334
557,2018-12-19,273.0729166666667,,273.0729166666667
557,2018-12-20,231.15625,,231.15625
557,2018-12-21,60.385416666666664,,60.385416666666664
557,2018-12-22,6.6875,,6.6875
557,2018-12-23,20.208333333333332,,20.208333333333332
557,2018-12-24,22.625,,22.625
557,2018-12-25,52.4375,,52.4375
557,2018-12-26,4.291666666666667,,4.291666666666667
557,2018-12-27,25.677083333333332,,25.677083333333332
557,2018-12-28,18.78125,,18.78125
557,2018-12-29,31.84375,,31.84375
557,2018-12-30,6.71875,,6.71875
557,2018-12-31,50.885416666666664,,50.885416666666664
557,2019-01-01,16.78125,,16.78125
557,2019-01-02,293.9895833333333,,293.9895833333333
557,2019-01-03,1.3125,,1.3125
557,2019-01-04,153.42708333333334,,153.42708333333334
557,2019-01-05,269.4375,,269.4375
557,2019-01-06,152.42708333333334,,152.42708333333334
557,2019-01-07,116.625,,116.625
557,2019-01-08,45.947916666666664,,45.947916666666664
557,2019-01-09,30.5625,,30.5625
557,2019-01-10,56.864583333333336,,56.864583333333336
557,2019-01-11,73.91666666666667,,73.91666666666667
557,2019-01-12,253.27083333333334,,253.27083333333334
557,2019-01-13,380.96875,,380.96875
557,2019-01-14,236.67708333333334,,236.67708333333334
557,2019-01-15,25.53125,,25.53125
557,2019-01-16,59.291666666666664,,59.291666666666664
557,2019-01-17,291.4583333333333,,291.4583333333333
557,2019-01-18,12.864583333333334,,12.864583333333334
557,2019-01-19,6.416666666666667,,6.416666666666667
557,2019-01-20,0.3645833333333333,,0.3645833333333333
557,2019-01-21,7.84375,,7.84375
557,2019-01-22,18.770833333333332,,18.770833333333332
557,2019-01-23,7.791666666666667,,7.791666666666667
557,2019-01-24,23.21875,,23.21875
557,2019-01-25,32.75,,32.75
557,2019-01-26,223.41666666666666,,223.41666666666666
557,2019-01-27,52.28125,,52.28125
557,2019-01-28,372.3854166666667,,372.3854166666667
557,2019-01-29,21.739583333333332,,21.739583333333332
557,2019-01-30,16.072916666666668,,16.072916666666668
557,2019-01-31,324.2604166666667,,324.2604166666667
557,2019-02-01,292.0625,,292.0625
557,2019-02-02,185.09375,,185.09375
557,2019-02-03,120.46875,,120.46875
557,2019-02-04,316.9479166666667,,316.9479166666667
557,2019-02-05,58.333333333333336,,58.333333333333336
557,2019-02-06,121.15625,,121.15625
557,2019-02-07,88.9375,,88.9375
557,2019-02-08,156.55208333333334,,156.55208333333334
557,2019-02-09,181.1875,,181.1875
557,2019-02-10,38.239583333333336,,38.239583333333336
557,2019-02-11,210.61458333333334,,210.61458333333334
557,2019-02-12,44.09375,,44.09375
557,2019-02-13,56.666666666666664,,56.666666666666664
557,2019-02-14,14.291666666666666,,14.291666666666666
557,2019-02-15,24.375,,24.375
557,2019-02-16,107.72916666666667,,107.72916666666667
557,2019-02-17,426.9479166666667,,426.9479166666667
557,2019-02-18,104.48958333333333,,104.48958333333333
557,2019-02-19,405.9895833333333,,405.9895833333333
557,2019-02-20,137.64583333333334,,137.64583333333334
557,2019-02-21,57.40625,,57.40625
557,2019-02-22,145.75,,145.75
557,2019-02-23,314.6875,,314.6875
557,2019-02-24,87.26041666666667,,87.26041666666667
557,2019-02-25,107.79166666666667,,107.79166666666667
557,2019-02-26,404.2291666666667,,404.2291666666667
557,2019-02-27,96.77083333333333,,96.77083333333333
557,2019-02-28,273.6458333333333,,273.6458333333333
557,2019-03-01,445.5833333333333,,445.5833333333333
557,2019-03-02,151.40625,,151.40625
557,2019-03-03,121.15625,,121.15625
557,2019-03-04,142.25,,142.25
557,2019-03-05,273.7916666666667,,273.7916666666667
557,2019-03-06,12.9375,,12.9375
557,2019-03-07,19.833333333333332,,19.833333333333332
557,2019-03-08,268.5104166666667,,268.5104166666667
557,2019-03-09,590.9375,,590.9375
557,2019-03-10,29.104166666666668,,29.104166666666668
557,2019-03-11,138.65625,,138.65625
557,2019-03-12,287.6354166666667,,287.6354166666667
557,2019-03-13,222.67708333333334,,222.67708333333334
557,2019-03-14,295.3020833333333,,295.3020833333333
557,2019-03-15,274.3541666666667,,274.3541666666667
557,2019-03-16,94.10416666666667,,94.10416666666667
557,2019-03-17,316.9895833333333,,316.9895833333333
557,2019-03-18,349.0520833333333,,349.0520833333333
557,2019-03-19,334.4583333333333,,334.4583333333333
557,2019-03-20,613.03125,,613.03125
557,2019-03-21,125.875,,125.875
557,2019-03-22,111.94791666666667,,111.94791666666667
557,2019-03-23,539.5833333333334,,539.5833333333334
557,2019-03-24,508.09375,,508.09375
557,2019-03-25,650.78125,,650.78125
557,2019-03-26,414.3020833333333,,414.3020833333333
557,2019-03-27,0.0,,0.0
557,2019-03-28,0.0,,0.0
557,2019-03-29,0.0,,0.0
557,2019-03-30,0.0,,0.0
557,2019-03-31,0.0,,0.0
557,2019-04-01,0.0,,0.0
557,2019-04-02,0.0,,0.0
557,2019-04-03,0.0,,0.0
557,2019-04-04,0.0,,0.0
557,2019-04-05,0.0,,0.0
557,2019-04-06,3.34375,,3.34375
557,2019-04-07,0.0,,0.0
557,2019-04-08,0.0,,0.0
557,2019-04-09,3.5833333333333335,,3.5833333333333335
557,2019-04-10,0.0,,0.0
557,2019-04-11,0.0,,0.0
557,2019-04-12,0.0,,0.0
557,2019-04-13,0.0,,0.0
557,2019-04-14,0.0,,0.0
557,2019-04-15,0.0,,0.0
557,2019-04-16,0.0,,0.0
557,2019-04-17,0.0,,0.0
557,2019-04-18,0.0,,0.0
557,2019-04-19,0.0,,0.0
557,2019-04-20,0.0,,0.0
557,2019-04-21,0.0,,0.0
557,2019-04-22,0.0,,0.0
557,2019-04-23,0.0,,0.0
557,2019-04-24,0.0,,0.0
557,2019-04-25,0.9895833333333334,,0.9895833333333334
557,2019-04-26,101.59375,,101.59375
557,2019-04-27,206.22916666666666,,206.22916666666666
557,2019-04-28,321.28125,,321.28125
557,2019-04-29,462.0625,,462.0625
557,2019-04-30,282.1875,,282.1875
557,2019-05-01,231.01041666666666,,231.01041666666666
557,2019-05-02,210.73958333333334,,210.73958333333334
557,2019-05-03,193.54166666666666,,193.54166666666666
557,2019-05-04,238.38541666666666,,238.38541666666666
557,2019-05-05,354.7395833333333,,354.7395833333333
557,2019-05-06,470.78125,,470.78125
557,2019-05-07,112.39583333333333,,112.39583333333333
557,2019-05-08,684.9270833333334,,684.9270833333334
557,2019-05-09,377.9895833333333,,377.9895833333333
557,2019-05-10,190.77083333333334,,190.77083333333334
557,2019-05-11,514.96875,,514.96875
557,2019-05-12,120.5,,120.5
557,2019-05-13,142.60416666666666,,142.60416666666666
557,2019-05-14,253.63541666666666,,253.63541666666666
557,2019-05-15,480.4375,,480.4375
557,2019-05-16,503.3020833333333,,503.3020833333333
557,2019-05-17,343.2291666666667,,343.2291666666667
557,2019-05-18,604.5416666666666,,604.5416666666666
557,2019-05-19,436.75,,436.75
557,2019-05-20,324.8854166666667,,324.8854166666667
557,2019-05-21,577.9583333333334,,577.9583333333334
557,2019-05-22,555.2395833333334,,555.2395833333334
557,2019-05-23,300.84375,,300.84375
557,2019-05-24,0.020833333333333332,,0.020833333333333332
557,2019-05-25,0.0,,0.0
557,2019-05-26,0.0,,0.0
557,2019-05-27,0.0,,0.0
557,2019-05-28,0.0,,0.0
557,2019-05-29,0.0,,0.0
557,2019-05-30,0.0,,0.0
557,2019-05-31,0.0,,0.0
557,2019-06-01,0.0,,0.0
557,2019-06-02,0.0,,0.0
557,2019-06-03,269.9895833333333,,269.9895833333333
557,2019-06-04,381.1354166666667,,381.1354166666667
557,2019-06-05,220.15625,,220.15625
557,2019-06-06,556.5104166666666,,556.5104166666666
557,2019-06-07,676.25,,676.25
557,2019-06-08,659.5625,,659.5625